AB8YS Weather Reports


Display with metric or nautical units.
time (UTC)temp
F
wind
direction
speed
MPH
gust
MPH
rain 1hr
in
rain 24hr
in
rain mn
in
humidity
%
barometer
mb
20260831083031 71 241 0.0 0.0 0.00 0.00 0.00 93 1016.7
20260831081529 71 241 0.0 0.0 0.00 0.00 0.00 92 1016.7
20260831080033 71 241 0.0 0.0 0.00 0.00 0.00 92 1016.4
20260831074527 71 241 0.0 0.0 0.00 0.00 0.00 91 1016.5
20260831073026 72 241 0.0 0.0 0.00 0.00 0.00 91 1016.5
20260831071524 72 241 0.0 0.0 0.00 0.00 0.00 91 1016.6
20260831070027 72 241 0.0 0.0 0.00 0.00 0.00 91 1016.8
20260831064522 72 241 0.0 0.0 0.00 0.00 0.00 92 1016.9
20260831063021 71 241 0.0 0.0 0.00 0.00 0.00 95 1016.9
20260831061518 70 241 0.0 0.0 0.00 0.00 0.00 95 1017.2
20260831060016 70 241 0.0 0.0 0.00 0.00 0.00 95 1017.3
20260831054514 70 241 0.0 0.0 0.00 0.00 0.00 94 1017.4
20260831053013 70 241 0.0 0.0 0.00 0.00 0.00 94 1017.5
20260831051523 70 241 0.0 0.0 0.00 0.00 0.00 94 1017.5
20260831050009 71 241 0.0 0.0 0.00 0.00 0.00 93 1017.4
20260831044509 71 241 0.0 0.0 0.00 0.00 0.00 93 1017.4
20260831043008 71 241 0.0 0.0 0.00 0.00 0.00 93 1017.4
20260831041505 71 241 0.0 0.0 0.00 0.00 0.00 92 1017.5
20260831040003 71 241 0.0 0.0 0.00 0.00 0.00 92 1017.5
20260831034504 72 241 0.0 0.0 0.00 0.00 0.00 92 1017.5
20260831033003 72 241 0.0 0.0 0.00 0.00 0.00 91 1017.5
20260831031501 72 241 0.0 0.0 0.00 0.00 0.00 91 1017.4
20260831030001 72 241 0.0 0.0 0.00 0.00 0.00 91 1017.5
20260831024503 72 241 0.0 0.0 0.00 0.00 0.00 90 1017.5
20260831023001 73 241 0.0 0.0 0.00 0.00 0.00 90 1017.5
20260831021600 73 241 0.0 0.0 0.00 0.00 0.00 91 1017.4
20260831020111 73 241 0.0 0.0 0.00 0.00 0.00 90 1017.3
20260831014601 73 241 0.0 0.0 0.00 0.00 0.00 89 1017.4
20260831013104 74 241 0.0 0.0 0.00 0.00 0.00 88 1017.4
20260831011558 74 241 0.0 0.0 0.00 0.00 0.00 85 1017.4
20260831010058 75 241 0.0 0.0 0.00 0.00 0.00 83 1017.3
20260831004600 76 241 0.0 0.0 0.00 0.00 0.00 82 1016.9
20260831003058 76 241 0.0 0.0 0.00 0.00 0.00 81 1017.0
20260831001556 77 241 0.0 0.0 0.00 0.00 0.00 80 1016.9
20260831000059 78 241 0.0 0.0 0.00 0.00 0.00 76 1016.9
20260830234555 79 241 0.0 0.0 0.00 0.00 0.00 76 1016.8
20260830233055 80 241 0.0 0.0 0.00 0.00 0.00 73 1016.6
20260830231554 81 241 0.0 0.0 0.00 0.00 0.00 71 1016.6
20260830230054 80 241 0.0 0.0 0.00 0.00 0.00 71 1016.4
20260830224555 80 241 0.0 0.0 0.00 0.00 0.00 72 1016.2
20260830223052 80 241 0.0 0.0 0.00 0.00 0.00 75 1016.1
20260830221552 80 241 0.0 0.0 0.00 0.00 0.00 74 1016.1
20260830220054 81 241 0.0 0.0 0.00 0.00 0.00 72 1016.1
20260830214551 82 241 0.0 0.0 0.00 0.00 0.00 68 1016.3
20260830213051 83 241 0.0 0.0 0.00 0.00 0.00 65 1016.4
20260830211559 83 229 0.0 0.0 0.00 0.00 0.00 61 1016.4
20260830210050 84 243 0.0 1.0 0.00 0.00 0.00 59 1016.3
20260830204549 84 250 0.0 4.0 0.00 0.00 0.00 58 1016.1
20260830203048 84 37 0.0 2.0 0.00 0.00 0.00 59 1016.2
20260830201545 84 250 0.0 1.0 0.00 0.00 0.00 60 1016.8
20260830200041 85 75 0.0 1.0 0.00 0.00 0.00 58 1017.3
20260830194539 84 52 0.0 0.0 0.00 0.00 0.00 60 1017.7
20260830193035 84 52 0.0 0.0 0.00 0.00 0.00 61 1018.1
20260830191539 84 53 0.0 0.0 0.00 0.00 0.00 60 1018.4
20260830190034 85 277 0.0 1.0 0.00 0.00 0.00 60 1018.7
20260830184533 84 277 0.0 1.0 0.00 0.00 0.00 61 1019.0
20260830183033 84 275 0.0 1.0 0.00 0.00 0.00 59 1019.0
20260830181532 84 276 0.0 1.0 0.00 0.00 0.00 62 1019.1
20260830180032 85 277 0.0 1.0 0.00 0.00 0.00 59 1019.2
20260830174535 86 277 0.0 2.0 0.00 0.00 0.00 56 1019.4
20260830173029 86 330 0.0 2.0 0.00 0.00 0.00 61 1019.5
20260830171526 85 67 0.0 1.0 0.00 0.00 0.00 65 1019.6
20260830170039 85 236 0.0 1.0 0.00 0.00 0.00 63 1019.6
20260830164523 85 213 0.0 1.0 0.00 0.00 0.00 65 1019.7
20260830163024 84 213 0.0 0.0 0.00 0.00 0.00 68 1019.7
20260830161519 84 213 0.0 1.0 0.00 0.00 0.00 64 1019.6
20260830160025 85 271 0.0 1.0 0.00 0.00 0.00 66 1019.5
20260830154515 83 257 0.0 1.0 0.00 0.00 0.00 68 1019.4
20260830153015 83 195 0.0 1.0 0.00 0.00 0.00 71 1019.3
20260830151512 83 274 0.0 1.0 0.00 0.00 0.00 68 1019.2
20260830150016 83 237 0.0 2.0 0.00 0.00 0.00 71 1019.0
20260830144509 81 255 0.0 2.0 0.00 0.00 0.00 70 1018.8
20260830143008 81 266 0.0 2.0 0.00 0.00 0.00 70 1018.5
20260830141506 81 203 0.0 1.0 0.00 0.00 0.00 71 1018.4
20260830140001 80 243 0.0 0.0 0.00 0.00 0.00 72 1018.4
20260830134603 80 255 0.0 2.0 0.00 0.00 0.00 72 1018.5
20260830133113 79 241 0.0 1.0 0.00 0.00 0.00 73 1018.3
20260830131600 78 268 0.0 0.0 0.00 0.00 0.00 77 1018.6
20260830130050 75 267 0.0 0.0 0.00 0.00 0.00 83 1018.6
20260830124548 72 267 0.0 0.0 0.00 0.00 0.00 88 1018.8
20260830123043 69 267 0.0 0.0 0.00 0.00 0.00 93 1019.1
20260830121537 67 267 0.0 0.0 0.00 0.00 0.00 95 1019.0
20260830120038 66 256 0.0 0.0 0.00 0.00 0.00 96 1019.0
20260830114537 65 255 0.0 0.0 0.00 0.00 0.00 95 1018.9
20260830113037 65 256 0.0 0.0 0.00 0.00 0.00 95 1018.9
20260830111536 66 256 0.0 0.0 0.00 0.00 0.00 94 1018.7
20260830110035 66 256 0.0 0.0 0.00 0.00 0.00 94 1018.6
20260830104534 66 256 0.0 0.0 0.00 0.00 0.00 95 1018.4
20260830103036 66 256 0.0 0.0 0.00 0.00 0.00 95 1018.2
20260830101533 66 256 0.0 0.0 0.00 0.00 0.00 95 1018.2
20260830100133 66 256 0.0 0.0 0.00 0.00 0.00 94 1018.5
20260830094533 66 256 0.0 0.0 0.00 0.00 0.00 94 1018.3
20260830093039 67 256 0.0 0.0 0.00 0.00 0.00 94 1018.2
20260830091531 67 256 0.0 0.0 0.00 0.00 0.00 94 1018.3
20260830090030 67 256 0.0 0.0 0.00 0.00 0.00 94 1018.2
20260830084530 67 256 0.0 0.0 0.00 0.00 0.00 95 1018.3